Time,TemperatureF,DewpointF,PressureIn,WindDirection,WindDirectionDegrees,WindSpeedMPH,WindSpeedGustMPH,Humidity,HourlyPrecipIn,Conditions,Clouds,dailyrainin,SoftwareType,DateUTC
2013-01-02 00:02:00,15.0,10.0,-100.00,South,180,6.0,8.0,82,-99.99,,,-99.99,,2013-01-02 07:02:00,
2013-01-02 00:12:00,15.0,10.0,-100.00,South,185,8.0,8.0,83,-99.99,,,0.00,,2013-01-02 07:12:00,
2013-01-02 00:22:00,15.0,10.0,-100.00,South,185,8.0,8.0,83,-99.99,,,0.00,,2013-01-02 07:22:00,
2013-01-02 00:32:00,14.0,10.0,-100.00,South,185,6.0,6.0,84,-99.99,,,0.00,,2013-01-02 07:32:00,
2013-01-02 00:42:00,14.0,10.0,-100.00,South,185,6.0,6.0,84,-99.99,,,0.00,,2013-01-02 07:42:00,
2013-01-02 00:52:00,14.0,11.0,-100.00,South,185,8.0,8.0,84,-99.99,,,0.00,,2013-01-02 07:52:00,
2013-01-02 01:02:00,14.0,11.0,-100.00,South,185,8.0,8.0,84,-99.99,,,0.00,,2013-01-02 08:02:00,
2013-01-02 01:11:00,13.0,10.0,-100.00,South,180,8.0,9.0,86,-99.99,,,0.00,,2013-01-02 08:11:00,
2013-01-02 01:22:00,13.0,10.0,-100.00,South,180,8.0,9.0,86,-99.99,,,0.00,,2013-01-02 08:22:00,
2013-01-02 01:32:00,13.0,10.0,-100.00,South,185,5.0,6.0,86,-99.99,,,0.00,,2013-01-02 08:32:00,
2013-01-02 01:42:00,13.0,10.0,-100.00,South,185,5.0,6.0,86,-99.99,,,0.00,,2013-01-02 08:42:00,
2013-01-02 01:52:00,12.0,9.0,-100.00,SSW,200,6.0,6.0,87,-99.99,,,0.00,,2013-01-02 08:52:00,
2013-01-02 02:02:00,12.0,9.0,-100.00,SSW,200,6.0,6.0,87,-99.99,,,0.00,,2013-01-02 09:02:00,
2013-01-02 02:12:00,13.0,10.0,-100.00,South,190,8.0,9.0,87,-99.99,,,0.00,,2013-01-02 09:12:00,
2013-01-02 02:22:00,13.0,10.0,-100.00,South,190,8.0,9.0,87,-99.99,,,0.00,,2013-01-02 09:22:00,
2013-01-02 02:32:00,13.0,10.0,-100.00,South,185,6.0,8.0,87,-99.99,,,0.00,,2013-01-02 09:32:00,
2013-01-02 02:42:00,13.0,10.0,-100.00,South,185,6.0,8.0,87,-99.99,,,0.00,,2013-01-02 09:42:00,
2013-01-02 02:52:00,12.0,9.0,-100.00,SW,215,4.0,6.0,87,-99.99,,,0.00,,2013-01-02 09:52:00,
2013-01-02 03:02:00,12.0,9.0,-100.00,SW,215,4.0,6.0,87,-99.99,,,0.00,,2013-01-02 10:02:00,
2013-01-02 03:12:00,14.0,10.0,-100.00,South,185,7.0,9.0,85,-99.99,,,0.00,,2013-01-02 10:12:00,
2013-01-02 03:22:00,14.0,10.0,-100.00,South,185,7.0,9.0,85,-99.99,,,0.00,,2013-01-02 10:22:00,
2013-01-02 03:32:00,14.0,10.0,-100.00,South,180,8.0,9.0,83,-99.99,,,0.00,,2013-01-02 10:32:00,
2013-01-02 03:42:00,14.0,10.0,-100.00,South,180,8.0,9.0,83,-99.99,,,0.00,,2013-01-02 10:42:00,
2013-01-02 03:52:00,14.0,10.0,-100.00,South,185,8.0,9.0,83,-99.99,,,0.00,,2013-01-02 10:52:00,
2013-01-02 04:02:00,14.0,10.0,-100.00,South,185,8.0,9.0,83,-99.99,,,0.00,,2013-01-02 11:02:00,
2013-01-02 04:11:00,14.0,10.0,-100.00,South,175,8.0,10.0,81,-99.99,,,0.00,,2013-01-02 11:11:00,
2013-01-02 04:22:00,14.0,10.0,-100.00,South,175,8.0,10.0,81,-99.99,,,0.00,,2013-01-02 11:22:00,
2013-01-02 04:32:00,15.0,9.0,-100.00,South,175,9.0,11.0,78,-99.99,,,0.00,,2013-01-02 11:32:00,
2013-01-02 04:42:00,15.0,9.0,-100.00,South,175,9.0,11.0,78,-99.99,,,0.00,,2013-01-02 11:42:00,
2013-01-02 04:52:00,15.0,9.0,-100.00,South,185,7.0,8.0,77,-99.99,,,0.00,,2013-01-02 11:52:00,
2013-01-02 05:02:00,15.0,9.0,-100.00,South,185,7.0,8.0,77,-99.99,,,0.00,,2013-01-02 12:02:00,
2013-01-02 05:12:00,15.0,9.0,-100.00,SSW,195,6.0,7.0,77,-99.99,,,0.00,,2013-01-02 12:12:00,
2013-01-02 05:22:00,15.0,9.0,-100.00,SSW,195,6.0,7.0,77,-99.99,,,0.00,,2013-01-02 12:22:00,
2013-01-02 05:32:00,15.0,9.0,-100.00,South,170,5.0,7.0,77,-99.99,,,0.00,,2013-01-02 12:32:00,
2013-01-02 05:42:00,15.0,9.0,-100.00,South,170,5.0,7.0,77,-99.99,,,0.00,,2013-01-02 12:42:00,
2013-01-02 05:52:00,13.0,8.0,-100.00,South,185,9.0,10.0,79,-99.99,,,0.00,,2013-01-02 12:52:00,
2013-01-02 06:02:00,13.0,8.0,-100.00,South,185,9.0,10.0,79,-99.99,,,0.00,,2013-01-02 13:02:00,
2013-01-02 06:12:00,13.0,8.0,-100.00,South,185,8.0,9.0,81,-99.99,,,0.00,,2013-01-02 13:12:00,
2013-01-02 06:22:00,13.0,8.0,-100.00,South,185,8.0,9.0,81,-99.99,,,0.00,,2013-01-02 13:22:00,
2013-01-02 06:32:00,13.0,8.0,-100.00,SSW,195,4.0,6.0,81,-99.99,,,0.00,,2013-01-02 13:32:00,
2013-01-02 06:42:00,13.0,8.0,-100.00,SSW,195,4.0,6.0,81,-99.99,,,0.00,,2013-01-02 13:42:00,
2013-01-02 06:52:00,12.0,8.0,-100.00,South,180,6.0,7.0,83,-99.99,,,0.00,,2013-01-02 13:52:00,
2013-01-02 07:02:00,12.0,8.0,-100.00,South,180,6.0,7.0,83,-99.99,,,0.00,,2013-01-02 14:02:00,
2013-01-02 07:12:00,12.0,8.0,-100.00,South,190,6.0,6.0,83,-99.99,,,0.00,,2013-01-02 14:12:00,
2013-01-02 07:22:00,12.0,8.0,-100.00,South,190,6.0,6.0,83,-99.99,,,0.00,,2013-01-02 14:22:00,
2013-01-02 07:32:00,12.0,8.0,-100.00,South,180,6.0,7.0,83,-99.99,,,0.00,,2013-01-02 14:32:00,
2013-01-02 07:42:00,12.0,8.0,-100.00,South,180,6.0,7.0,83,-99.99,,,0.00,,2013-01-02 14:42:00,
2013-01-02 07:53:00,11.0,7.0,-100.00,South,175,4.0,6.0,85,-99.99,,,0.00,,2013-01-02 14:53:00,
2013-01-02 08:02:00,11.0,7.0,-100.00,South,175,4.0,6.0,85,-99.99,,,0.00,,2013-01-02 15:02:00,
2013-01-02 08:12:00,11.0,7.0,-100.00,South,190,4.0,5.0,86,-99.99,,,0.00,,2013-01-02 15:12:00,
2013-01-02 08:22:00,11.0,7.0,-100.00,South,190,4.0,5.0,86,-99.99,,,0.00,,2013-01-02 15:22:00,
2013-01-02 08:33:00,11.0,7.0,-100.00,South,190,4.0,5.0,86,-99.99,,,0.00,,2013-01-02 15:33:00,
2013-01-02 08:42:00,11.0,7.0,-100.00,South,190,4.0,5.0,86,-99.99,,,0.00,,2013-01-02 15:42:00,
2013-01-02 08:52:00,9.0,6.0,-100.00,SSW,205,1.0,3.0,89,-99.99,,,0.00,,2013-01-02 15:52:00,
2013-01-02 09:03:00,9.0,6.0,-100.00,SSW,205,1.0,3.0,89,-99.99,,,0.00,,2013-01-02 16:03:00,
2013-01-02 09:12:00,11.0,8.0,-100.00,South,180,6.0,8.0,87,-99.99,,,0.00,,2013-01-02 16:12:00,
2013-01-02 09:22:00,11.0,8.0,-100.00,South,180,6.0,8.0,87,-99.99,,,0.00,,2013-01-02 16:22:00,
2013-01-02 09:33:00,12.0,8.0,-100.00,SSW,195,6.0,8.0,86,-99.99,,,0.00,,2013-01-02 16:33:00,
2013-01-02 09:42:00,12.0,8.0,-100.00,SSW,195,6.0,8.0,86,-99.99,,,0.00,,2013-01-02 16:42:00,
2013-01-02 09:53:00,13.0,9.0,-100.00,SSW,205,4.0,6.0,83,-99.99,,,0.00,,2013-01-02 16:53:00,
2013-01-02 10:02:00,13.0,9.0,-100.00,SSW,205,4.0,6.0,83,-99.99,,,0.00,,2013-01-02 17:02:00,
2013-01-02 10:12:00,15.0,10.0,-100.00,South,185,6.0,8.0,81,-99.99,,,0.00,,2013-01-02 17:12:00,
2013-01-02 10:22:00,15.0,10.0,-100.00,South,185,6.0,8.0,81,-99.99,,,0.00,,2013-01-02 17:22:00,
2013-01-02 10:33:00,16.0,10.0,-100.00,SSE,155,5.0,7.0,78,-99.99,,,0.00,,2013-01-02 17:33:00,
2013-01-02 10:43:00,16.0,10.0,-100.00,SSE,155,5.0,7.0,78,-99.99,,,0.00,,2013-01-02 17:43:00,
2013-01-02 10:53:00,17.0,11.0,-100.00,South,185,1.0,5.0,76,-99.99,,,0.00,,2013-01-02 17:53:00,
2013-01-02 11:02:00,17.0,11.0,-100.00,South,185,1.0,5.0,76,-99.99,,,0.00,,2013-01-02 18:02:00,
2013-01-02 11:12:00,18.0,11.0,-100.00,South,175,5.0,7.0,74,-99.99,,,0.00,,2013-01-02 18:12:00,
2013-01-02 11:22:00,18.0,11.0,-100.00,South,175,5.0,7.0,74,-99.99,,,0.00,,2013-01-02 18:22:00,
2013-01-02 11:33:00,19.0,11.0,-100.00,SW,215,2.0,6.0,71,-99.99,,,0.00,,2013-01-02 18:33:00,
2013-01-02 11:42:00,19.0,11.0,-100.00,SW,215,2.0,6.0,71,-99.99,,,0.00,,2013-01-02 18:42:00,
2013-01-02 11:53:00,19.0,11.0,-100.00,SSE,150,1.0,8.0,69,-99.99,,,0.00,,2013-01-02 18:53:00,
2013-01-02 12:02:00,19.0,11.0,-100.00,SSE,150,1.0,8.0,69,-99.99,,,0.00,,2013-01-02 19:02:00,
2013-01-02 12:12:00,23.0,11.0,-100.00,SSW,200,11.0,12.0,60,-99.99,,,0.00,,2013-01-02 19:12:00,
2013-01-02 12:22:00,23.0,11.0,-100.00,SSW,200,11.0,12.0,60,-99.99,,,0.00,,2013-01-02 19:22:00,
2013-01-02 12:32:00,23.0,11.0,-100.00,SSW,200,13.0,15.0,59,-99.99,,,0.00,,2013-01-02 19:32:00,
2013-01-02 12:42:00,23.0,11.0,-100.00,SSW,200,13.0,15.0,59,-99.99,,,0.00,,2013-01-02 19:42:00,
2013-01-02 12:52:00,23.0,11.0,-100.00,SSW,195,12.0,14.0,58,-99.99,,,0.00,,2013-01-02 19:52:00,
2013-01-02 13:02:00,23.0,11.0,-100.00,SSW,195,12.0,14.0,58,-99.99,,,0.00,,2013-01-02 20:02:00,
2013-01-02 13:12:00,24.0,11.0,-100.00,SSW,210,11.0,12.0,57,-99.99,,,0.00,,2013-01-02 20:12:00,
2013-01-02 13:22:00,24.0,11.0,-100.00,SSW,210,11.0,12.0,57,-99.99,,,0.00,,2013-01-02 20:22:00,
2013-01-02 13:33:00,25.0,12.0,-100.00,SSW,205,11.0,12.0,56,-99.99,,,0.00,,2013-01-02 20:33:00,
2013-01-02 13:42:00,25.0,12.0,-100.00,SSW,205,11.0,12.0,56,-99.99,,,0.00,,2013-01-02 20:42:00,
2013-01-02 13:53:00,26.0,11.0,-100.00,SSW,205,14.0,16.0,54,-99.99,,,0.00,,2013-01-02 20:53:00,
2013-01-02 14:02:00,26.0,11.0,-100.00,SSW,205,14.0,16.0,54,-99.99,,,0.00,,2013-01-02 21:02:00,
2013-01-02 14:12:00,26.0,11.0,-100.00,SSW,200,11.0,12.0,53,-99.99,,,0.00,,2013-01-02 21:12:00,
2013-01-02 14:22:00,26.0,11.0,-100.00,SSW,200,11.0,12.0,53,-99.99,,,0.00,,2013-01-02 21:22:00,
2013-01-02 14:32:00,26.0,11.0,-100.00,SSW,195,11.0,14.0,52,-99.99,,,0.00,,2013-01-02 21:32:00,
2013-01-02 14:42:00,26.0,11.0,-100.00,SSW,195,11.0,14.0,52,-99.99,,,0.00,,2013-01-02 21:42:00,
2013-01-02 14:52:00,27.0,11.0,-100.00,SSW,205,13.0,16.0,51,-99.99,,,0.00,,2013-01-02 21:52:00,
2013-01-02 15:02:00,27.0,11.0,-100.00,SSW,205,13.0,16.0,51,-99.99,,,0.00,,2013-01-02 22:02:00,
2013-01-02 15:12:00,27.0,10.0,-100.00,South,190,11.0,13.0,49,-99.99,,,0.00,,2013-01-02 22:12:00,
2013-01-02 15:22:00,27.0,10.0,-100.00,South,190,11.0,13.0,49,-99.99,,,0.00,,2013-01-02 22:22:00,
2013-01-02 15:32:00,27.0,11.0,-100.00,South,190,14.0,17.0,49,-99.99,,,0.00,,2013-01-02 22:32:00,
2013-01-02 15:42:00,27.0,11.0,-100.00,South,190,14.0,17.0,49,-99.99,,,0.00,,2013-01-02 22:42:00,
2013-01-02 15:52:00,27.0,11.0,-100.00,SSW,200,16.0,19.0,49,-99.99,,,0.00,,2013-01-02 22:52:00,
2013-01-02 16:02:00,27.0,11.0,-100.00,SSW,200,16.0,19.0,49,-99.99,,,0.00,,2013-01-02 23:02:00,
2013-01-02 16:12:00,27.0,11.0,-100.00,SSW,205,12.0,16.0,50,-99.99,,,0.00,,2013-01-02 23:12:00,
2013-01-02 16:22:00,27.0,11.0,-100.00,SSW,205,12.0,16.0,50,-99.99,,,0.00,,2013-01-02 23:22:00,
2013-01-02 16:33:00,26.0,11.0,-100.00,SW,220,10.0,12.0,52,-99.99,,,0.00,,2013-01-02 23:33:00,
2013-01-02 16:42:00,26.0,11.0,-100.00,SW,220,10.0,12.0,52,-99.99,,,0.00,,2013-01-02 23:42:00,
2013-01-02 16:52:00,26.0,11.0,-100.00,SW,225,10.0,13.0,52,-99.99,,,0.00,,2013-01-02 23:52:00,
2013-01-02 17:02:00,26.0,11.0,-100.00,SW,225,10.0,13.0,52,-99.99,,,0.00,,2013-01-03 00:02:00,
2013-01-02 17:12:00,25.0,11.0,-100.00,South,175,6.0,8.0,53,-99.99,,,0.00,,2013-01-03 00:12:00,
2013-01-02 17:22:00,25.0,11.0,-100.00,South,175,6.0,8.0,53,-99.99,,,0.00,,2013-01-03 00:22:00,
2013-01-02 17:37:00,25.0,11.0,-100.00,South,190,8.0,9.0,53,-99.99,,,0.00,,2013-01-03 00:37:00,
2013-01-02 17:52:00,25.0,11.0,-100.00,SSW,210,5.0,11.0,53,-99.99,,,0.00,,2013-01-03 00:52:00,
2013-01-02 18:12:00,25.0,10.0,-100.00,South,190,8.0,11.0,54,-99.99,,,0.00,,2013-01-03 01:12:00,
2013-01-02 18:22:00,25.0,10.0,-100.00,South,190,8.0,11.0,54,-99.99,,,0.00,,2013-01-03 01:22:00,
2013-01-02 18:32:00,24.0,10.0,-100.00,South,180,8.0,9.0,54,-99.99,,,0.00,,2013-01-03 01:32:00,
2013-01-02 18:42:00,24.0,10.0,-100.00,South,180,8.0,9.0,54,-99.99,,,0.00,,2013-01-03 01:42:00,
2013-01-02 18:52:00,23.0,10.0,-100.00,South,180,10.0,12.0,56,-99.99,,,0.00,,2013-01-03 01:52:00,
2013-01-02 19:02:00,23.0,10.0,-100.00,South,180,10.0,12.0,56,-99.99,,,0.00,,2013-01-03 02:02:00,
2013-01-02 19:12:00,22.0,9.0,-100.00,East,80,1.0,6.0,57,-99.99,,,0.00,,2013-01-03 02:12:00,
2013-01-02 19:22:00,22.0,9.0,-100.00,East,80,1.0,6.0,57,-99.99,,,0.00,,2013-01-03 02:22:00,
2013-01-02 19:33:00,23.0,10.0,-100.00,South,190,7.0,8.0,56,-99.99,,,0.00,,2013-01-03 02:33:00,
2013-01-02 19:42:00,23.0,10.0,-100.00,South,190,7.0,8.0,56,-99.99,,,0.00,,2013-01-03 02:42:00,
2013-01-02 19:52:00,23.0,10.0,-100.00,South,190,7.0,8.0,56,-99.99,,,0.00,,2013-01-03 02:52:00,
2013-01-02 20:02:00,24.0,10.0,-100.00,South,185,6.0,9.0,55,-99.99,,,0.00,,2013-01-03 03:02:00,
2013-01-02 20:12:00,24.0,10.0,-100.00,South,180,6.0,8.0,54,-99.99,,,0.00,,2013-01-03 03:12:00,
2013-01-02 20:22:00,24.0,10.0,-100.00,South,180,6.0,8.0,54,-99.99,,,0.00,,2013-01-03 03:22:00,
2013-01-02 20:46:00,24.0,9.0,-100.00,SSW,200,2.0,6.0,54,-99.99,,,0.00,,2013-01-03 03:46:00,
2013-01-02 20:52:00,23.0,9.0,-100.00,South,185,5.0,8.0,54,-99.99,,,0.00,,2013-01-03 03:52:00,
2013-01-02 21:02:00,23.0,9.0,-100.00,South,185,5.0,8.0,54,-99.99,,,0.00,,2013-01-03 04:02:00,
2013-01-02 21:12:00,23.0,9.0,-100.00,SSW,200,2.0,5.0,53,-99.99,,,0.00,,2013-01-03 04:12:00,
2013-01-02 21:22:00,23.0,9.0,-100.00,SSW,200,2.0,5.0,53,-99.99,,,0.00,,2013-01-03 04:22:00,
2013-01-02 21:32:00,23.0,9.0,-100.00,South,190,2.0,8.0,54,-99.99,,,0.00,,2013-01-03 04:32:00,
2013-01-02 21:42:00,23.0,9.0,-100.00,South,190,2.0,8.0,54,-99.99,,,0.00,,2013-01-03 04:42:00,
2013-01-02 21:52:00,23.0,9.0,-100.00,West,275,1.0,7.0,54,-99.99,,,0.00,,2013-01-03 04:52:00,
2013-01-02 22:03:00,23.0,9.0,-100.00,West,275,1.0,7.0,54,-99.99,,,0.00,,2013-01-03 05:03:00,
2013-01-02 22:12:00,23.0,9.0,-100.00,SSW,200,5.0,8.0,54,-99.99,,,0.00,,2013-01-03 05:12:00,
2013-01-02 22:22:00,23.0,9.0,-100.00,SSW,200,5.0,8.0,54,-99.99,,,0.00,,2013-01-03 05:22:00,
2013-01-02 22:33:00,22.0,8.0,-100.00,South,180,2.0,6.0,54,-99.99,,,0.00,,2013-01-03 05:33:00,
2013-01-02 22:42:00,22.0,8.0,-100.00,South,180,2.0,6.0,54,-99.99,,,0.00,,2013-01-03 05:42:00,
2013-01-02 22:52:00,23.0,9.0,-100.00,SSE,160,6.0,8.0,54,-99.99,,,0.00,,2013-01-03 05:52:00,
2013-01-02 23:02:00,23.0,9.0,-100.00,SSE,160,6.0,8.0,54,-99.99,,,0.00,,2013-01-03 06:02:00,
2013-01-02 23:12:00,24.0,9.0,-100.00,SW,215,8.0,11.0,52,-99.99,,,0.00,,2013-01-03 06:12:00,
2013-01-02 23:22:00,24.0,9.0,-100.00,SW,215,8.0,11.0,52,-99.99,,,0.00,,2013-01-03 06:22:00,
2013-01-02 23:32:00,24.0,9.0,-100.00,SSW,195,6.0,8.0,52,-99.99,,,0.00,,2013-01-03 06:32:00,
2013-01-02 23:52:00,25.0,9.0,-100.00,SW,215,11.0,14.0,51,-99.99,,,-99.99,,2013-01-03 06:52:00,